Simultaneous Nadir Overpasses (SNOs) Predictions

Prediction of SNOs between NOAA-15 and METOP-C Satellite Orbit:

Table of predicted SNOs for the next 14.0 days since TLE Epoch: 7/10/2022
Index Date (NOAA-15) Time (NOAA-15) Lat,Lon (NOAA-15) SZA (NOAA-15 ) Date (METOP-C) Time (METOP-C) Lat,Lon (METOP-C) SZA (METOP-C ) Distance(km) Time Diff (sec)
1 07/23/2022 16:10:31 -81.08, 155.30 117.11 07/23/2022 16:09:27 -81.07, 155.47 117.12 3.19 64
2 07/23/2022 17:01:05 81.07, -37.11 62.92 07/23/2022 17:00:07 81.07, -37.22 62.88 2.03 58
3 07/23/2022 17:51:32 -81.07, 130.31 117.07 07/23/2022 17:50:48 -81.08, 130.34 117.08 1.12 44
4 07/23/2022 18:42:07 81.07, -62.46 62.93 07/23/2022 18:41:28 81.08, -62.35 62.93 1.93 39
5 07/23/2022 19:32:34 -81.07, 104.95 117.07 07/23/2022 19:32:10 -81.07, 104.84 117.09 2.02 24
6 07/23/2022 20:23:09 81.08, -87.82 62.94 07/23/2022 20:22:50 81.07, -87.85 62.92 1.06 19
7 07/23/2022 21:13:36 -81.08, 79.60 117.06 07/23/2022 21:13:31 -81.08, 79.71 117.05 1.92 5
8 07/23/2022 22:04:10 81.07,-112.80 62.97 07/23/2022 22:04:11 81.08,-112.98 62.96 3.34 1
9 07/23/2022 22:54:38 -81.08, 54.24 117.05 07/23/2022 22:54:53 -81.07, 54.21 117.05 1.06 15
10 07/23/2022 23:45:13 81.09,-138.53 62.95 07/23/2022 23:45:33 81.07,-138.48 62.96 1.81 20
11 07/24/2022 00:35:39 -81.07, 29.26 117.02 07/24/2022 00:36:14 -81.08, 29.08 117.01 3.33 35
12 07/24/2022 01:26:14 81.07,-163.52 62.99 07/24/2022 01:26:54 81.08,-163.61 63.00 1.73 40
13 07/24/2022 02:16:42 -81.09, 3.53 117.03 07/24/2022 02:17:36 -81.07, 3.58 117.02 1.81 54



Historial Predications of SNOs between NOAA-15 and METOP-C
